Regional Weather Roundup
Issued by NWS

Home | Current Version | Previous Version | Text Only | Print | Product List | Glossary On
Versions: 1 2 3 4 5 6 7 8 9 10 11 12 13 14 15 16 17 18 19 20 21 22 23 24 25 26 27 28 29 30 31 32 33 34 35 36 37 38 39 40 41 42 43 44 45 46 47 48 49 50
000
ASUS43 KMPX 261710
RWRMN
WEATHER ROUNDUP FOR MINNESOTA
NATIONAL WEATHER SERVICE TWIN CITIES/CHANHASSEN MN
1200 PM CDT TUE SEP 26 2017


NOTE: "FAIR" INDICATES FEW OR NO CLOUDS BELOW 12,000 FEET WITH NO
SIGNIFICANT WEATHER AND/OR OBSTRUCTIONS TO VISIBILITY. N/A MEANS
CURRENT SKY AND/OR WEATHER CONDITIONS ARE NOT AVAILABLE.

MNZ060>063-068>070-261800-
   Twin Cities Metro

CITY           SKY/WX    TMP DP  RH WIND       PRES   REMARKS
TWIN CITIES    LGT RAIN  60  57  89 W16       29.98R
ST PAUL        CLOUDY    61  57  87 W13       29.98R
CRYSTAL        CLOUDY    59  53  80 W15       29.98R
BLAINE         DRIZZLE   61  61 100 W10G18    29.98R
LAKEVILLE      CLOUDY    59  55  88 W10       29.99S
EDEN PRAIRIE   CLOUDY    62  55  77 NW14      29.98S
SOUTH ST PAUL  CLOUDY    61  56  83 W8G16     29.98R
LAKE ELMO      CLOUDY    61  55  82 W13G18    29.98R
$$
MNZ001>005-007-008-013>017-022>024-027-028-261800-
   Northwest Minnesota

CITY           SKY/WX    TMP DP  RH WIND       PRES   REMARKS
BEMIDJI        LGT RAIN  51  49  95 NW7       30.00F
HALLOCK        LGT RAIN  50  48  93 N5        30.08S
ROSEAU         RAIN      50  45  81 N6        30.06S
WARROAD        LGT RAIN  50  46  87 NW9       30.06S
CROOKSTON      RAIN      48  48 100 NW8       30.08S
FOSSTON        LGT RAIN  48  48 100 NW9       30.05R
DETROIT LAKES  DRIZZLE   50  50 100 NW9       30.05S
MOORHEAD       CLOUDY    52  48  87 NW9       30.08S
PARK RAPIDS    CLOUDY    55  51  86 NW10      30.01S
MAHNOMEN       DRIZZLE   50  49  95 NW6       30.05S
$$
MNZ006-009>011-018-025>026-261800-
   North Central Minnesota

CITY           SKY/WX    TMP DP  RH WIND       PRES   REMARKS
BAUDETTE       RAIN      50  48  93 NE8       30.03S
FLAG ISLAND    LGT RAIN  48  46  93 N5        30.04S
INTL FALLS     LGT RAIN  51  47  86 NE7       29.99S FOG
WASKISH        LGT RAIN  50  50 100 N3        30.01F
BIG FORK       LGT RAIN  52  48  87 NW3       29.98S
LONGVILLE      CLOUDY    52  52 100 CALM      29.98S FOG
GRAND RAPIDS   LGT RAIN  52  52 100 N7        29.98S FOG
CRANE LAKE     DRIZZLE   50  48  93 CALM      29.97S
ORR            DRIZZLE   50  46  87 CALM      29.94S
COOK           DRIZZLE   52  48  87 VRB5      29.95S
WALKER         DRIZZLE   50  49  96 NW5       30.00S
$$
MNZ012-019>021-037-261800-
   Northeast Minnesota

CITY           SKY/WX    TMP DP  RH WIND       PRES   REMARKS
DULUTH         LGT RAIN  53  53 100 E7        29.91F VSB 3/4
ELY            CLOUDY    52  50  93 NE5       29.92F
HIBBING        LGT RAIN  52  51  97 N5        29.94S FOG
EVELETH        CLOUDY    53  52  97 CALM      29.95R FOG
DULUTH HARBOR  LGT RAIN  55  54  94 NE14      29.92S
TWO HARBORS    MIX PCPN  57  52  82 E6        29.90S
SILVER BAY     CLOUDY    55  54  94 E8        29.90F FOG
GRAND MARAIS     N/A     57  54  89 VRB5      29.91F
G MARAIS ARPRT CLOUDY    52  46  82 N7        29.93F
$$
MNZ029>031-032-039>041-046>048-054>057-064-261800-
   West Central Minnesota

CITY           SKY/WX    TMP DP  RH WIND       PRES   REMARKS
FERGUS FALLS   CLOUDY    54  54 100 NW13      30.06F
WHEATON        CLOUDY    54  48  82 NW12G17   30.08F
MORRIS         PTSUNNY   55  52  88 NW14      30.05R
ALEXANDRIA     CLOUDY    54  52  93 NW15      30.05R
ELBOW LAKE     CLOUDY    54  51  89 NW9       30.06S
WADENA         CLOUDY    54  54 100 NW7       30.02F
GLENWOOD       MOSUNNY   55  52  88 NW15      30.04S
APPLETON       CLOUDY    57  50  77 NW12G17   30.05F
BENSON         CLOUDY    59  52  77 N9        30.07R
ORTONVILLE     CLOUDY    54  50  87 NW14G20   30.07F
MADISON        PTSUNNY   57  54  88 NW12      30.07F
WILLMAR        PTSUNNY   55  55 100 NW14      30.06S
$$
MNZ033>034-036-042>043-049>051-058-059-261800-
   Central Minnesota

CITY           SKY/WX    TMP DP  RH WIND       PRES   REMARKS
ST CLOUD       CLOUDY    57  55  93 NW14      29.99R
SAUK CENTRE    CLOUDY    55  51  84 NW12      30.02S
PAYNESVILLE    CLOUDY    56  53  92 W14G23    30.03S
AITKIN         DRIZZLE   54  52  94 NW3       29.95S
PINE RIVER     DRIZZLE   50  50 100 NW6       30.02S
BRAINERD       LGT RAIN  54  52  93 N9        29.99R FOG
STAPLES        DRIZZLE   52  52 100 NW8       30.01S
LITTLE FALLS   CLOUDY    54  50  87 NW6       30.00S
LITCHFIELD     CLOUDY    57  55  94 NW13G21   30.03R FOG
BUFFALO        CLOUDY    58  53  82 W9        30.01S
MAPLE LAKE     CLOUDY    59  55  87 W8G17     30.01S
HUTCHINSON     CLOUDY    58  55  89 W13G18    30.04R
$$
MNZ037-044-045-052-053-261800-
   East Central Minnesota

CITY           SKY/WX    TMP DP  RH WIND       PRES   REMARKS
PRINCETON      CLOUDY    59  55  88 W12G18    29.98R
MORA           DRIZZLE   55  54  94 W10       29.97R
CAMBRIDGE      CLOUDY    61  57  88 W12       29.97R
RUSH CITY      CLOUDY    58  55  91 W9G16     29.95R
MOOSE LAKE     CLOUDY    55  54  94 NE3       29.92R
HINCKLEY       CLOUDY    59  57  94 W3        29.93S FOG
CLOQUET        CLOUDY    55  52  88 E3        29.92F FOG
MCGREGOR       CLOUDY    54  54 100 NW5       29.96R
$$
MNZ071>073-080-081-089-090-097-098-261800-
   Southwest Minnesota

CITY           SKY/WX    TMP DP  RH WIND       PRES   REMARKS
MONTEVIDEO     CLOUDY    59  59 100 NW10G16   30.07R
GRANITE FALLS  CLOUDY    60  53  76 W14G20    30.08S
CANBY          CLOUDY    57  51  79 W13       30.09S
MARSHALL       CLOUDY    57  52  82 NW16      30.08R
REDWOOD FALLS  PTSUNNY   59  51  75 NW12      30.05S
OLIVIA         PTSUNNY   55  52  88 NW10      30.04F
PIPESTONE      CLOUDY    54  48  82 N8        30.10S
WINDOM         SUNNY     59  52  77 NW13G18   30.07S
WORTHINGTON    CLOUDY    59  51  75 NW12      30.09S
JACKSON        CLOUDY    55  50  82 NW13      30.08S
TRACY          CLOUDY    60  53  78 NW9       30.08S
SLAYTON        PTSUNNY   58  45  62 NW13      30.10R
$$
MNZ065>067-074>077-082>085-091>093-261800-
   South Central Minnesota

CITY           SKY/WX    TMP DP  RH WIND       PRES   REMARKS
MANKATO        CLOUDY    58  54  86 W14       30.03S
NEW ULM        CLOUDY    57  54  88 NW14      30.05S
ST JAMES       CLOUDY    55  54  94 W14       30.07R
FAIRMONT       CLOUDY    58  52  80 NW17G24   30.06S
FARIBAULT      CLOUDY    61  55  82 W10G16    30.02R
OWATONNA       CLOUDY    61  55  82 W13       30.01S
WASECA         LGT RAIN  55  54  94 W12G17    30.04S
ALBERT LEA     CLOUDY    59  59 100 W12G18    30.02S
$$
MNZ078>079-086>088-094>096-261800-
   Southeast Minnesota

CITY           SKY/WX    TMP DP  RH WIND       PRES   REMARKS
ROCHESTER      CLOUDY    59  57  93 W13       30.01R
RED WING       CLOUDY    63  55  77 W10       29.96S
STANTON        CLOUDY    61  56  84 W12       29.98S
DODGE CENTER   CLOUDY    59  54  82 W12       30.01R
WINONA         CLOUDY    66  61  82 NW9       29.97R
AUSTIN         CLOUDY    63  55  77 NW10      30.01S
PRESTON        CLOUDY    61  58  88 NW12      30.01R
$$
ABBREVIATIONS USED IN REMARKS
   TC - TEMPERATURES IN CELSIUS
  WCI - WIND CHILL INDEX
   HX - HEAT INDEX
  VSB - VISIBILITY
$$




USA.gov is the U.S. government's official web portal to all federal, state and local government web resources and services.